Vancleve, KY

6:28 PM EST on February 27, 2017 (GMT -0500)
Carroll

Weather History for KJKL - June, 2013

Change the Weather History Date:

Saturday, June 15, 2013

  Actual Average Record
Temperature  
Mean Temperature 69 °F 72 °F  
Max Temperature 81 °F 82 °F 92 °F (1988)
Min Temperature 56 °F 63 °F 54 °F (2002)
Degree Days  
Heating Degree Days 0 0  
Month to date heating degree days 0 9  
Since 1 June heating degree days 0 9  
Since 1 July heating degree days 4364 4231  
Cooling Degree Days 4 7  
Month to date cooling degree days 90 90  
Year to date cooling degree days 238 226  
Since 1 June cooling degree days 90 90  
Growing Degree Days 18 (Base 50)    
Moisture  
Dew Point 57 °F    
Average Humidity 68    
Maximum Humidity 93    
Minimum Humidity 42    
Precipitation  
Precipitation 0.00 in 0.16 in 2.28 in (2004)
Month to date precipitation 2.98 2.47  
Year to date precipitation 23.18 22.98  
Snow  
Snow 0.00 in 0.00 in - ()
Month to date snowfall 0.0 0.0  
Since 1 June snowfall 0.0 0.0  
Since 1 July snowfall 20.0 23.5  
Snow Depth 0.00 in    
Sea Level Pressure  
Sea Level Pressure 30.08 in    
Wind  
Wind Speed 1 mph (SSE)    
Max Wind Speed 7 mph    
Max Gust Speed 13 mph    
Visibility 9 miles    
Events      
T = Trace of Precipitation, MM = Missing Value Source: NWS Daily Summary

Daily Weather History Graph

Daily Weather History Graph

Search for Another Location

Airport or City:

Trip Planner

Search our weather history database for the weather conditions in past years. The results will help you decide how hot, cold, wet, or windy it might be!

Date:

Astronomy

Jun. 15, 2013 Rise Set
Actual Time 6:11 AM EDT 8:56 PM EDT
Civil Twilight 5:40 AM EDT 9:27 PM EDT
Nautical Twilight 5:01 AM EDT 10:06 PM EDT
Astronomical Twilight 4:17 AM EDT 10:50 PM EDT
Moon 12:38 PM EDT (6/15) 12:37 AM EDT (6/15)
Length of Visible Light 15h 47m
Length of Day
14h 45m
Waxing Crescent, 39% of the Moon is Illuminated
Jun 15
Waxing Crescent
Jun 16
First Quarter
Jun 23
Full
Jun 30
Last Quarter
Jul 8
New

Hourly Weather History & Observations

Time (EDT) Temp. Heat Index Dew Point Humidity Pressure Visibility Wind Dir Wind Speed Gust Speed Precip Events Conditions
12:53 AM 64.9 °F - 55.9 °F 73% 30.06 in 10.0 mi Calm Calm - N/A   Clear
1:53 AM 63.0 °F - 57.0 °F 81% 30.07 in 10.0 mi Calm Calm - N/A   Clear
2:53 AM 64.0 °F - 55.0 °F 73% 30.06 in 10.0 mi ESE 3.5 mph - N/A   Clear
3:53 AM 62.1 °F - 55.0 °F 78% 30.05 in 10.0 mi SE 4.6 mph - N/A   Clear
4:53 AM 61.0 °F - 55.0 °F 81% 30.07 in 10.0 mi Calm Calm - N/A   Clear
5:53 AM 60.1 °F - 55.9 °F 86% 30.09 in 10.0 mi Calm Calm - N/A   Clear
6:11 AM 55.4 °F - 53.6 °F 94% 30.13 in 2.5 mi Calm Calm - N/A   Partly Cloudy
6:13 AM 55.4 °F - 53.6 °F 94% 30.13 in 1.2 mi Calm Calm - N/A   Scattered Clouds
6:20 AM 55.4 °F - 55.4 °F 100% 30.12 in 0.8 mi Calm Calm - N/A   Mist
6:24 AM 57.2 °F - 55.4 °F 94% 30.13 in 2.0 mi South 3.5 mph - N/A   Partly Cloudy
6:31 AM 57.2 °F - 55.4 °F 94% 30.13 in 9.0 mi Calm Calm - N/A   Partly Cloudy
6:53 AM 59.0 °F - 57.0 °F 93% 30.10 in 10.0 mi Calm Calm - N/A   Clear
7:53 AM 63.0 °F - 59.0 °F 87% 30.12 in 10.0 mi Calm Calm - N/A   Clear
8:53 AM 66.9 °F - 60.1 °F 79% 30.14 in 10.0 mi Calm Calm - N/A   Clear
9:53 AM 68.0 °F - 61.0 °F 78% 30.14 in 10.0 mi Calm Calm - N/A   Clear
10:53 AM 73.0 °F - 60.1 °F 64% 30.12 in 10.0 mi Calm Calm - N/A   Clear
11:53 AM 75.0 °F - 57.9 °F 55% 30.13 in 10.0 mi WNW 6.9 mph - N/A   Partly Cloudy
12:53 PM 77.0 °F - 55.9 °F 48% 30.12 in 10.0 mi Calm Calm - N/A   Clear
1:53 PM 78.1 °F - 55.0 °F 45% 30.10 in 10.0 mi Calm Calm - N/A   Partly Cloudy
2:53 PM 79.0 °F - 55.0 °F 44% 30.07 in 10.0 mi Variable 3.5 mph - N/A   Scattered Clouds
3:53 PM 79.0 °F - 55.0 °F 44% 30.05 in 10.0 mi Variable 3.5 mph - N/A   Clear
4:53 PM 80.1 °F 80.2 °F 55.9 °F 43% 30.04 in 10.0 mi Variable 3.5 mph - N/A   Clear
5:53 PM 80.1 °F 80.2 °F 55.9 °F 43% 30.04 in 10.0 mi South 3.5 mph - N/A   Clear
6:53 PM 79.0 °F - 60.1 °F 52% 30.04 in 7.0 mi Calm Calm - N/A   Partly Cloudy
7:53 PM 78.1 °F - 59.0 °F 52% 30.03 in 10.0 mi Calm Calm - N/A   Clear
8:53 PM 75.9 °F - 57.9 °F 54% 30.01 in 10.0 mi Calm Calm - N/A   Clear
9:53 PM 73.0 °F - 60.1 °F 64% 30.03 in 10.0 mi Calm Calm - N/A   Clear
10:53 PM 72.0 °F - 60.1 °F 66% 30.03 in 10.0 mi Calm Calm - N/A   Clear
11:53 PM 71.1 °F - 61.0 °F 70% 30.04 in 10.0 mi Calm Calm - N/A   Mostly Cloudy